Location: Newark
(28.4500°N, 16.2500°W)
Time: 23:51:09
(UTC+00:00)

JUGNU - Pass Details

Date: 24 October 2019
Orbit: 836 x 864 km, 20.0° (Epoch: 14 November)

Event Time Altitude Azimuth Distance (km) Brightness Sun altitude
Rises 20:40:28 0° 232° (SW) 3,391 ? -30.0°
Reaches altitude 10° 20:43:28 10° 219° (SW) 2,462 ? -30.6°
Enters shadow 20:46:20 21° 193° (SSW) 1,815 ? -31.3°
